Regional Weather Roundup
Issued by NWS Jackson, KY

Home | Current Version | Previous Version | Graphics & Text | Print | Product List | Glossary On
Versions: 1 2 3 4 5 6 7 8 9 10 11 12 13 14 15 16 17 18 19 20 21 22 23 24 25 26 27 28 29 30 31 32 33 34 35 36 37 38 39 40 41 42 43 44 45 46 47 48 49 50
545
ASUS43 KJKL 272010
RWRJKL

EAST KENTUCKY HOURLY WEATHER ROUNDUP
NATIONAL WEATHER SERVICE JACKSON KY
400 PM EDT TUE JUN 27 2017

NOTE: "FAIR" INDICATES FEW OR NO CLOUDS BELOW 12,000 FEET WITH
NO SIGNIFICANT WEATHER AND/OR OBSTRUCTIONS TO VISIBILITY.

* THESE REPORTS ARE NOT UNDER NWS QUALITY CONTROL AND MAY NOT
  REPORT WEATHER SUCH AS PRECIPITATION AND FOG.

KYZ079-080-083-085-087-088-110-112-115-119-120-272100
...EASTERN KENTUCKY...

CITY           SKY/WX    TMP DP  RH WIND       PRES   REMARKS
JACKSON        PTSUNNY   74  47  38 NW8       30.13F
LONDON         MOSUNNY   77  45  32 NW9       30.13F
SOMERSET*      SUNNY     75  46  35 W9        30.13F
MONTICELLO*    SUNNY     77  52  41 N17       30.14F
WILLIAMSBURG*  MOCLDY    73  52  46 N3        30.13S
MIDDLESBORO*   MOSUNNY   76  51  41 W8        30.13F
HARLAN APT*    PTCLDY    77  43  29 W3        30.14S
PIKE CO APT*     N/A     73  49  42 W8        30.13F
BIG SANDY APT* MOCLDY    75  50  41 W10       30.13S
MOREHEAD APT*  PTCLDY    73  48  40 W7G14     30.15S
ASHLAND*       PTSUNNY   75  55  50 N5        30.10F
$$

KYZ035-036-041-042-044-050-067-078-099-272100
...CENTRAL KENTUCKY...

CITY           SKY/WX    TMP DP  RH WIND       PRES   REMARKS
MT STERLING*   MOSUNNY   73  50  43 NW5       30.15S
FLEMING/MASON* MOSUNNY   70  46  42 CALM      30.14F
DANVILLE*      PTSUNNY   77  46  33 NW5       30.13F
LEXINGTON      MOSUNNY   74  46  36 VRB7      30.13F
FRANKFORT      SUNNY     75  45  34 VRB6      30.11F
LOUISVILLE     MOSUNNY   79  47  32 VRB6      30.11F
LEBANON*         N/A    N/A N/A N/A NW5       30.12
GLASGOW*       PTSUNNY   76  52  42 E3        30.11F
BOWLING GREEN  MOSUNNY   79  54  41 CALM      30.11F
$$

KYZ091>093-OHZ055-061-077-WVZ005-015-034-035-042-272100
...SOUTHERN OHIO/WEST VIRGINIA...

CITY           SKY/WX    TMP DP  RH WIND       PRES   REMARKS
COVINGTON      PTSUNNY   71  50  47 N6        30.12F
COLUMBUS       MOSUNNY   71  50  47 W10       30.10F
DAYTON         MOSUNNY   70  44  39 NW7       30.13F
WILMINGTON     PTSUNNY   70  50  49 W6        30.12F
HUNTINGTON     PTSUNNY   75  48  38 SW8G17    30.11F
CHARLESTON     MOSUNNY   74  47  38 W8G20     30.10F
PINEVILLE*     MOSUNNY   75  46  35 MISG      30.17F
BECKLEY        MOSUNNY   70  43  37 W10       30.14F
BLUEFIELD      MOSUNNY   67  42  40 NW14G21   30.16S
LOGAN CO APT*    N/A     72  48  43 VRB5      30.13S
$$

VAZ002-007-008-TNZ017-027-036-066-071-272100
...SOUTHWEST VIRGINIA/EAST TENNESSEE...

CITY           SKY/WX    TMP DP  RH WIND       PRES   REMARKS
WISE*          MOSUNNY   70  45  40 CALM      30.18S
JONESVILLE*      N/A     75  48  38 NW5       30.14F
ABINGDON*      PTSUNNY   74  51  43 W6        30.14F
BRISTOL        MOSUNNY   76  50  40 VRB6      30.12F
MORRISTOWN*    PTCLDY    77  50  38 NE7       30.12S
SEVIERVILLE*   PTCLDY    79  50  36 NE8       30.11S
KNOXVILLE      MOSUNNY   78  51  38 E8        30.11S
LAFOLLETTE*    MOCLDY    79  48  34 VRB3      30.15F
OAK RIDGE      MOSUNNY   79  49  34 W3        30.12F
CROSSVILLE     SUNNY     75  51  43 N8        30.15F
NASHVILLE      PTSUNNY   83  55  38 E6        30.10F
$$

...KEY TO REMARKS...
VSB - VISIBILITY IN MILES
WCI - WIND CHILL INDEX
HX  - HEAT INDEX

$$




USA.gov is the U.S. government's official web portal to all federal, state and local government web resources and services.